COSMOS 1953 (19210 NORAD) Tracking and Keplerian Element Data

This shows tracking and keplerian element data for the satellite.

Feedback or suggestion? Click here.




ElementValue
Catalog19210
NameCOSMOS 1953
Epoch Orbit93937
Epoch Day13.06083176
Epoch Year2024
RAAN219.8967
Inclination82.5117
Eccentricity0.0015817
Argument of Perigee356.7116
Mean Anonmoly3.4008
Mean Motion15.12626195
Decay Rate6.637E-05
L11 19210U 88050A 24013.06083176 .00006637 00000+0 37723-3 0 9991
L22 19210 82.5117 219.8967 0015817 356.7116 3.4008 15.12626195939376



Live tracking and technical data element details for COSMOS 1953 (NORAD 19210). COSMOS 1953 can be tracked NOW for your location showing map with azimuth and elevation plus other details from your city location.







IsCatalogInMostPopularTable: catalog: 19210, numindb: 357
Update: records affected: 1



GetName: 19210 COSMOS 1953

Hit Count: updated at: Sun, 14 Apr 2024 23:57:12 GMT